Location: Peterborough
(44.3091°N, 78.3197°W)
Time: 17:32:08
(UTC-04:00)

Transit 2A Rocket - Pass Details

Date: 31 March 2023
Orbit: 584 x 914 km, 66.7° (Epoch: 04 June)

Event Time Altitude Azimuth Distance (km) Brightness Sun altitude
Rises 18:42:25 0° 331° (NNW) 3,557 8.8 9.3°
Reaches altitude 10° 18:45:10 10° 340° (NNW) 2,612 8.0 8.8°
Maximum altitude 18:50:49 37° 47° (NE) 1,359 6.1 7.8°
Drops below altitude 10° 18:56:15 10° 114° (ESE) 2,510 7.1 6.8°
Sets 18:58:51 0° 123° (ESE) 3,402 7.8 6.4°
